(462967) = 2011 EY27

Discovered at Kitt Peak on 2011-02-23 by Spacewatch.

Orbit

Orbit type: Main Belt

Note: WebGL enabled browser required.

epoch2023-09-13.0
epoch JD2460200.5
perihelion date2021-10-07.89663
perihelion JD2459495.39663
argument of perihelion (°)117.13032
ascending node (°)75.74830
inclination (°)2.03635
eccentricity0.0723142
perihelion distance (AU)2.7730812
Tisserand w.r.t. Jupiter3.3
ΔV w.r.t. Earth (km/sec)10.4
semimajor axis (AU)2.9892461
mean anomaly (°)134.46651
mean daily motion (°/day)0.19070470
aphelion distance (AU)3.205
period (years)5.17
P-vector [x]-0.97429972
P-vector [y]-0.21720033
P-vector [z]-0.05969987
Q-vector [x]0.22260717
Q-vector [y]-0.88789174
Q-vector [z]-0.40260937
absolute magnitude17.01
phase slope0.15
uncertainty0
referenceMPEC 2023-Q114
observations used144
oppositions10
arc length (days)8161
first opposition used2001
last opposition used2023
residual rms (arc-secs)0.83
perturbers coarse indicatorM-v
perturbers precise indicator003Ek
first observation date used2001-04-15.0
last observation date used2023-08-19.0
computer nameMPCLINUX
Minimum Orbit Intersection Distances (in AU)
for orbit epoch: 2460200.5, reference: E2023-QB4
Mercury2.34551
Venus2.05228
Earth1.77187
Mars1.12515
Jupiter1.74597
Saturn5.97908
Uranus15.6442
Neptune26.6384

Observations

151 total observations over interval: 2001 04 15.28843 – 2023 08 19.432071
These data are available for download (format description).

